Location: Unspecified
(50.0830°N, 0.0000°E)
Time: 04:19:40
(UTC+00:00)

N. Korean satellite - Pass Details

Date: 20 November 2019
Orbit: 456 x 506 km, 97.2° (Epoch: 06 December)

Event Time Altitude Azimuth Distance (km) Brightness Sun altitude
Rises 17:54:08 0° 202° (SSW) 2,568 10.7 -16.3°
Reaches altitude 10° 17:56:37 10° 220° (SW) 1,699 10.1 -16.7°
Maximum altitude 17:59:21 20° 268° (W) 1,220 9.6 -17.2°
Drops below altitude 10° 18:02:08 10° 317° (NW) 1,725 9.8 -17.6°
Sets 18:04:41 0° 335° (NNW) 2,621 10.5 -18.0°
